Location: Lafig�re
(44.4503°N, 4.0357°E)
Time: 06:50:38
(UTC+00:00)

Cosmos 1125 Rocket - Pass Details

Date: 23 January 2021
Orbit: 757 x 780 km, 74.0° (Epoch: 06 March)

Event Time Altitude Azimuth Distance (km) Brightness Sun altitude
Exits shadow 04:04:43 - 4° (N) 2,859 6.5 -33.1°
Reaches altitude 10° 04:07:47 10° 31° (NNE) 2,337 6.4 -32.6°
Maximum altitude 04:09:06 11° 46° (NE) 2,278 6.5 -32.3°
Drops below altitude 10° 04:10:24 10° 60° (ENE) 2,336 6.7 -32.1°
Sets 04:15:01 0° 97° (E) 3,262 7.9 -31.3°
